Weather History for Alamogordo, NM

Change the Weather History Date:

Wednesday, February 13, 2013

  Actual Average Record
Temperature  
Mean Temperature 35 °F -  
Max Temperature 53 °F 63 °F 120 °F (1997)
Min Temperature 17 °F 34 °F 10 °F (1963)
Degree Days  
Heating Degree Days 30    
Moisture  
Dew Point 7 °F    
Average Humidity 31    
Maximum Humidity 58    
Minimum Humidity 14    
Precipitation  
Precipitation 0.00 in - - ()
Sea Level Pressure  
Sea Level Pressure 30.11 in    
Wind  
Wind Speed 8 mph (NNE)    
Max Wind Speed 14 mph    
Max Gust Speed 17 mph    
Visibility 10 miles    
Events      
Averages and records for this station are not official NWS values.
T = Trace of Precipitation, MM = Missing Value Source: NWS Daily Summary

Daily Weather History Graph

Daily Weather History Graph

Search for Another Location

Airport:

Trip Planner

Search our weather history database for the weather conditions in past years. The results will help you decide how hot, cold, wet, or windy it might be!

Date:

Astronomy

Feb. 13, 2013 Rise Set
Actual Time 6:48 AM MST 5:47 PM MST
Civil Twilight 6:23 AM MST 6:13 PM MST
Nautical Twilight 5:54 AM MST 6:42 PM MST
Astronomical Twilight 5:25 AM MST 7:10 PM MST
Moon 8:34 AM MST (2/13) 9:36 PM MST (2/13)
Length of Visible Light 11h 49m
Length of Day
10h 59m
Waxing Crescent, 14% of the Moon is Illuminated
Feb 13
Waxing Crescent
Feb 17
First Quarter
Feb 25
Full
Mar 4
Last Quarter
Mar 11
New

Hourly Weather History & Observations

Time (MST) Temp. Windchill Dew Point Humidity Pressure Visibility Wind Dir Wind Speed Gust Speed Precip Events Conditions
12:15 AM 24.8 °F 15.3 °F 6.8 °F 46% 30.17 in 10.0 mi ENE 9.2 mph - N/A   Clear
12:35 AM 24.8 °F 15.3 °F 6.8 °F 46% 30.16 in 10.0 mi NE 9.2 mph - N/A   Clear
12:55 AM 32.0 °F 23.6 °F 6.8 °F 35% 30.15 in 10.0 mi NNE 10.4 mph - N/A   Clear
1:15 AM 28.4 °F 21.2 °F 6.8 °F 40% 30.15 in 10.0 mi NE 6.9 mph - N/A   Clear
1:35 AM 32.0 °F 24.8 °F 6.8 °F 35% 30.15 in 10.0 mi North 8.1 mph - N/A   Clear
1:55 AM 32.0 °F 23.6 °F 5.0 °F 32% 30.15 in 10.0 mi NE 10.4 mph - N/A   Clear
2:15 AM 26.6 °F 16.8 °F 6.8 °F 43% 30.15 in 10.0 mi North 10.4 mph - N/A   Clear
2:35 AM 28.4 °F 21.2 °F 6.8 °F 40% 30.15 in 10.0 mi NNE 6.9 mph - N/A   Clear
2:55 AM 23.0 °F 13.1 °F 5.0 °F 46% 30.15 in 10.0 mi SE 9.2 mph - N/A   Clear
3:15 AM 19.4 °F - 5.0 °F 54% 30.14 in 10.0 mi Calm Calm - N/A   Clear
3:35 AM 21.2 °F 10.9 °F 5.0 °F 50% 30.13 in 10.0 mi NE 9.2 mph - N/A   Clear
3:55 AM 23.0 °F 17.0 °F 5.0 °F 46% 30.12 in 10.0 mi NNE 4.6 mph - N/A   Clear
4:15 AM 24.8 °F 16.9 °F 5.0 °F 43% 30.12 in 10.0 mi North 6.9 mph - N/A   Clear
4:35 AM 24.8 °F 17.9 °F 6.8 °F 46% 30.12 in 10.0 mi ESE 5.8 mph - N/A   Clear
4:55 AM 17.6 °F 9.3 °F 5.0 °F 58% 30.13 in 10.0 mi SSE 5.8 mph - N/A   Clear
5:15 AM 17.6 °F 10.7 °F 3.2 °F 53% 30.13 in 10.0 mi ESE 4.6 mph - N/A   Clear
5:35 AM 19.4 °F 12.8 °F 5.0 °F 54% 30.13 in 10.0 mi ESE 4.6 mph - N/A   Clear
5:55 AM 19.4 °F 11.5 °F 3.2 °F 49% 30.14 in 10.0 mi SE 5.8 mph - N/A   Clear
6:15 AM 19.4 °F 12.8 °F 5.0 °F 54% 30.15 in 10.0 mi SSE 4.6 mph - N/A   Clear
6:35 AM 19.4 °F 14.3 °F 3.2 °F 49% 30.15 in 10.0 mi South 3.5 mph - N/A   Clear
6:55 AM 19.4 °F 14.3 °F 3.2 °F 49% 30.15 in 10.0 mi ESE 3.5 mph - N/A   Clear
7:15 AM 17.6 °F 12.3 °F 3.2 °F 53% 30.15 in 10.0 mi ESE 3.5 mph - N/A   Clear
7:35 AM 19.4 °F - 5.0 °F 54% 30.16 in 10.0 mi Calm Calm - N/A   Clear
7:55 AM 24.8 °F - 6.8 °F 46% 30.16 in 10.0 mi Calm Calm - N/A   Clear
8:15 AM 26.6 °F - 6.8 °F 43% 30.17 in 10.0 mi Calm Calm - N/A   Clear
8:35 AM 28.4 °F 24.6 °F 6.8 °F 40% 30.17 in 10.0 mi North 3.5 mph - N/A   Clear
8:55 AM 32.0 °F 27.5 °F 6.8 °F 35% 30.18 in 10.0 mi NNW 4.6 mph - N/A   Clear
9:15 AM 39.2 °F 32.0 °F 8.6 °F 28% 30.17 in 10.0 mi NNW 11.5 mph - N/A   Clear
9:35 AM 41.0 °F 33.5 °F 10.4 °F 29% 30.18 in 10.0 mi NNW 13.8 mph - N/A   Clear
9:55 AM 42.8 °F 36.2 °F 10.4 °F 27% 30.17 in 10.0 mi NNW 12.7 mph - N/A   Clear
10:15 AM 44.6 °F 38.4 °F 10.4 °F 25% 30.17 in 10.0 mi NNW 12.7 mph - N/A   Clear
10:35 AM 44.6 °F 38.1 °F 8.6 °F 23% 30.17 in 10.0 mi NW 13.8 mph - N/A   Clear
10:55 AM 44.6 °F 38.8 °F 8.6 °F 23% 30.17 in 10.0 mi NW 11.5 mph - N/A   Clear
11:15 AM 46.4 °F 42.4 °F 10.4 °F 23% 30.16 in 10.0 mi NNW 8.1 mph - N/A   Clear
11:35 AM 46.4 °F 41.5 °F 8.6 °F 22% 30.15 in 10.0 mi NNW 10.4 mph - N/A   Clear
11:55 AM 48.2 °F - 8.6 °F 20% 30.14 in 10.0 mi NW 12.7 mph 17.3 mph N/A   Clear
12:15 PM 48.2 °F - 8.6 °F 20% 30.13 in 10.0 mi NW 5.8 mph - N/A   Clear
12:35 PM 50.0 °F - 8.6 °F 19% 30.12 in 10.0 mi NNE 5.8 mph - N/A   Clear
12:55 PM 48.2 °F - 8.6 °F 20% 30.10 in 10.0 mi West 8.1 mph - N/A   Clear
1:15 PM 50.0 °F - 8.6 °F 19% 30.09 in 10.0 mi NNW 6.9 mph - N/A   Clear
1:35 PM 50.0 °F - 8.6 °F 19% 30.08 in 10.0 mi NW 9.2 mph - N/A   Clear
1:55 PM 50.0 °F - 6.8 °F 17% 30.07 in 10.0 mi WNW 11.5 mph - N/A   Clear
2:15 PM 50.0 °F - 6.8 °F 17% 30.07 in 10.0 mi NNW 3.5 mph - N/A   Clear
2:35 PM 51.8 °F - 6.8 °F 16% 30.06 in 10.0 mi North 10.4 mph - N/A   Clear
2:55 PM 53.6 °F - 5.0 °F 14% 30.06 in 10.0 mi NW 9.2 mph - N/A   Clear
3:15 PM 53.6 °F - 5.0 °F 14% 30.06 in 10.0 mi North 8.1 mph 16.1 mph N/A   Clear
3:35 PM 51.8 °F - 5.0 °F 15% 30.05 in 10.0 mi NNW 6.9 mph - N/A   Clear
3:55 PM 53.6 °F - 6.8 °F 15% 30.05 in 10.0 mi North 8.1 mph - N/A   Clear
4:15 PM 51.8 °F - 6.8 °F 16% 30.06 in 10.0 mi NW 9.2 mph - N/A   Clear
4:35 PM 51.8 °F - 6.8 °F 16% 30.06 in 10.0 mi North 6.9 mph - N/A   Clear
4:55 PM 51.8 °F - 6.8 °F 16% 30.05 in 10.0 mi NNE 4.6 mph - N/A   Clear
5:15 PM 50.0 °F - 5.0 °F 16% 30.05 in 10.0 mi NNE 3.5 mph - N/A   Clear
5:35 PM 50.0 °F - 5.0 °F 16% 30.05 in 10.0 mi North 4.6 mph - N/A   Clear
5:55 PM 48.2 °F - 5.0 °F 17% 30.06 in 10.0 mi NNW 4.6 mph - N/A   Clear
6:15 PM 46.4 °F 43.5 °F 5.0 °F 18% 30.06 in 10.0 mi NNW 5.8 mph - N/A   Clear
6:35 PM 41.0 °F 38.0 °F 5.0 °F 23% 30.06 in 10.0 mi NNE 4.6 mph - N/A   Clear
6:55 PM 44.6 °F 43.1 °F 6.8 °F 21% 30.07 in 10.0 mi North 3.5 mph - N/A   Clear
7:15 PM 42.8 °F 39.3 °F 6.8 °F 23% 30.07 in 10.0 mi North 5.8 mph - N/A   Clear
7:35 PM 41.0 °F 37.1 °F 6.8 °F 24% 30.08 in 10.0 mi North 5.8 mph - N/A   Clear
7:55 PM 41.0 °F 35.8 °F 6.8 °F 24% 30.08 in 10.0 mi North 8.1 mph - N/A   Clear
8:15 PM 41.0 °F 36.4 °F 6.8 °F 24% 30.08 in 10.0 mi NNE 6.9 mph - N/A   Clear
8:35 PM 39.2 °F 32.5 °F 8.6 °F 28% 30.08 in 10.0 mi NNE 10.4 mph - N/A   Clear
8:55 PM 39.2 °F 33.0 °F 8.6 °F 28% 30.08 in 10.0 mi NNE 9.2 mph - N/A   Clear
9:15 PM 37.4 °F 30.8 °F 8.6 °F 30% 30.08 in 10.0 mi NNE 9.2 mph - N/A   Clear
9:35 PM 37.4 °F 30.8 °F 8.6 °F 30% 30.09 in 10.0 mi NE 9.2 mph - N/A   Clear
9:55 PM 37.4 °F 29.8 °F 10.4 °F 33% 30.09 in 10.0 mi NE 11.5 mph - N/A   Clear
10:15 PM 37.4 °F 30.8 °F 10.4 °F 33% 30.09 in 10.0 mi NE 9.2 mph - N/A   Clear
10:35 PM 39.2 °F 31.6 °F 10.4 °F 31% 30.09 in 10.0 mi NE 12.7 mph - N/A   Clear
10:55 PM 39.2 °F 33.6 °F 10.4 °F 31% 30.08 in 10.0 mi NNE 8.1 mph - N/A   Clear
11:15 PM 37.4 °F 30.8 °F 10.4 °F 33% 30.09 in 10.0 mi NNE 9.2 mph - N/A   Clear
11:35 PM 39.2 °F 33.0 °F 10.4 °F 31% 30.09 in 10.0 mi NE 9.2 mph - N/A   Clear
11:55 PM 37.4 °F 30.8 °F 10.4 °F 33% 30.08 in 10.0 mi NNE 9.2 mph - N/A   Clear